Date String (YYYY-MM-DD hh:mm:ss) UTC,Instrument flags,Ambient pressure (hPa),Sample flow (lpm),Bypass flow (lpm),Sample temperature (°C),Ambient temperature (°C),ASC tube jacket temperature (°C),LED temperature (°C),Box temperature (°C),Sample RH (%),Span deviation,Mass concentration (μg/m³),Mass concentration (μg/m³),Mass concentration (μg/m³)
DateTimeUTC,F1_M11,P_M11,Q1_M11,Q2_M11,T1_M11,T2_M11,T3_M11,T4_M11,T5_M11,U1_M11,ZSPAN_M11,X0_M11,X2_M11,X1_M11
2022-11-05 12:00:00,,0812.3,5.01,0.00,22.4,21.0,00.0,31.2,24.2,14.7,0000.0,0007.31,0001.96,0001.46
2022-11-05 12:01:00,,0812.3,5.00,0.00,22.4,20.9,00.0,31.2,24.2,14.7,0000.0,0006.66,0001.48,0001.04
2022-11-05 12:02:00,,0812.2,5.00,0.00,22.4,20.8,00.0,31.3,24.1,14.5,0000.0,0005.77,0001.14,0000.78
2022-11-05 12:03:00,,0812.3,5.00,0.00,22.4,20.8,00.0,31.3,24.1,14.6,0000.0,0005.39,0000.93,0000.63
2022-11-05 12:04:00,,0812.3,5.00,0.00,22.3,20.8,00.0,31.2,24.1,14.5,0000.0,0004.81,0000.90,0000.57
2022-11-05 12:05:00,,0812.2,5.00,0.00,22.3,20.7,00.0,31.2,24.1,14.6,0000.0,0004.14,0000.87,0000.54
2022-11-05 12:06:00,,0812.2,5.00,0.00,22.3,20.7,00.0,31.2,24.1,14.6,0000.0,0003.72,0000.82,0000.49
2022-11-05 12:07:00,,0812.2,5.00,0.00,22.3,20.7,00.0,31.2,24.0,14.8,0000.0,0003.84,0000.82,0000.47
2022-11-05 12:08:00,,0812.1,5.00,0.00,22.3,20.6,00.0,31.2,24.0,14.8,0000.0,0003.27,0000.79,0000.47
2022-11-05 12:09:00,,0812.1,5.01,0.00,22.2,20.9,00.0,31.2,24.1,14.9,0000.0,0003.14,0000.76,0000.47
2022-11-05 12:10:00,,0812.2,5.01,0.00,22.3,21.9,00.0,31.1,24.3,14.8,0000.0,0003.14,0000.78,0000.48
2022-11-05 12:11:00,,0812.0,4.98,0.00,22.5,22.5,00.0,31.1,24.5,14.7,0000.0,0003.02,0000.83,0000.48
2022-11-05 12:12:00,,0811.9,5.01,0.00,22.5,22.2,00.0,31.2,24.5,14.5,0000.0,0003.93,0000.85,0000.48
2022-11-05 12:13:00,,0811.9,5.01,0.00,22.5,22.0,00.0,31.2,24.5,14.6,0000.0,0003.97,0000.86,0000.48
2022-11-05 12:14:00,,0811.7,4.98,0.00,22.5,21.7,00.0,31.3,24.4,14.4,0000.0,0004.02,0000.87,0000.47
2022-11-05 12:15:00,,0811.7,5.02,0.00,22.5,21.4,00.0,31.3,24.3,14.3,0000.0,0003.92,0000.85,0000.46
2022-11-05 12:16:00,,0811.8,5.00,0.00,22.5,21.2,00.0,31.3,24.3,14.3,0000.0,0003.90,0000.84,0000.45
2022-11-05 12:17:00,,0811.9,5.00,0.00,22.5,21.1,00.0,31.3,24.2,14.3,0000.0,0003.70,0000.83,0000.45
2022-11-05 12:18:00,,0811.9,5.00,0.00,22.4,21.0,00.0,31.3,24.2,14.5,0000.0,0003.51,0000.80,0000.45
2022-11-05 12:19:00,,0811.8,5.00,0.00,22.4,20.8,00.0,31.3,24.2,14.6,0000.0,0003.48,0000.79,0000.45
2022-11-05 12:20:00,,0811.9,5.00,0.00,22.4,20.8,00.0,31.3,24.1,14.7,0000.0,0004.35,0000.81,0000.45
2022-11-05 12:21:00,,0811.9,5.00,0.00,22.3,20.8,00.0,31.3,24.1,14.8,0000.0,0004.47,0000.79,0000.44
2022-11-05 12:22:00,,0811.9,5.01,0.00,22.3,20.7,00.0,31.3,24.0,14.8,0000.0,0003.93,0000.72,0000.43
2022-11-05 12:23:00,,0811.9,5.00,0.00,22.3,20.7,00.0,31.2,24.0,14.7,0000.0,0002.48,0000.68,0000.43
2022-11-05 12:24:00,,0811.8,5.01,0.00,22.3,20.6,00.0,31.2,24.0,14.6,0000.0,0002.41,0000.69,0000.43
2022-11-05 12:25:00,,0811.7,5.00,0.00,22.2,20.6,00.0,31.2,23.9,14.7,0000.0,0002.42,0000.70,0000.43
2022-11-05 12:26:00,,0811.8,5.00,0.00,22.2,20.6,00.0,31.2,24.0,14.6,0000.0,0002.43,0000.69,0000.43
2022-11-05 12:27:00,,0811.6,5.00,0.00,22.2,20.6,00.0,31.2,23.9,14.7,0000.0,0002.39,0000.68,0000.43
2022-11-05 12:28:00,,0811.7,5.00,0.00,22.2,21.2,00.0,31.1,24.1,14.7,0000.0,0002.52,0000.70,0000.43
2022-11-05 12:29:00,,0811.8,5.01,0.00,22.3,22.3,00.0,31.1,24.4,14.4,0000.0,0002.57,0000.73,0000.44
2022-11-05 12:30:00,,0811.8,5.00,0.00,22.4,22.5,00.0,31.2,24.5,14.5,0000.0,0002.65,0000.76,0000.45
2022-11-05 12:31:00,,0811.6,4.98,0.00,22.5,22.1,00.0,31.2,24.5,14.7,0000.0,0002.07,0000.77,0000.45
2022-11-05 12:32:00,,0811.5,5.00,0.00,22.5,21.8,00.0,31.2,24.4,14.6,0000.0,0001.96,0000.83,0000.46
2022-11-05 12:33:00,,0811.5,5.01,0.00,22.5,21.5,00.0,31.3,24.3,14.5,0000.0,0002.14,0000.87,0000.46
2022-11-05 12:34:00,,0811.6,4.99,0.00,22.5,21.3,00.0,31.3,24.3,14.5,0000.0,0002.19,0000.89,0000.46
2022-11-05 12:35:00,,0811.5,5.00,0.00,22.4,21.2,00.0,31.3,24.3,14.7,0000.0,0002.20,0000.92,0000.47
2022-11-05 12:36:00,,0811.6,5.00,0.00,22.4,21.0,00.0,31.3,24.2,14.8,0000.0,0002.55,0000.96,0000.47
2022-11-05 12:37:00,,0811.6,5.00,0.00,22.4,20.9,00.0,31.3,24.1,14.8,0000.0,0004.59,0001.06,0000.48
2022-11-05 12:38:00,,0811.6,5.00,0.00,22.4,20.8,00.0,31.3,24.1,14.5,0000.0,0004.99,0001.11,0000.49
2022-11-05 12:39:00,,0811.5,5.00,0.00,22.3,20.7,00.0,31.3,24.1,14.8,0000.0,0005.05,0001.17,0000.49
2022-11-05 12:40:00,,0811.5,4.99,0.00,22.3,20.6,00.0,31.3,24.0,14.7,0000.0,0005.57,0001.21,0000.49
2022-11-05 12:41:00,,0811.3,4.99,0.00,22.3,20.6,00.0,31.3,24.0,15.0,0000.0,0006.76,0001.26,0000.49
2022-11-05 12:42:00,,0811.5,5.02,0.00,22.3,21.3,00.0,31.2,24.2,14.8,0000.0,0008.05,0001.34,0000.50
2022-11-05 12:43:00,,0811.4,5.00,0.00,22.4,22.4,00.0,31.2,24.5,14.5,0000.0,0008.23,0001.35,0000.50
2022-11-05 12:44:00,,0811.4,4.99,0.00,22.5,22.5,00.0,31.2,24.6,14.6,0000.0,0009.89,0001.38,0000.52
2022-11-05 12:45:00,,0811.2,5.00,0.00,22.6,22.1,00.0,31.3,24.6,14.5,0000.0,0011.89,0001.44,0000.54
2022-11-05 12:46:00,,0811.7,5.01,0.00,22.6,21.8,00.0,31.3,24.5,14.4,0000.0,0013.71,0001.51,0000.54
2022-11-05 12:47:00,,0811.3,4.99,0.00,22.5,21.6,00.0,31.3,24.4,14.4,0000.0,0013.78,0001.45,0000.54
2022-11-05 12:48:00,,0811.3,4.99,0.00,22.5,21.3,00.0,31.3,24.4,14.6,0000.0,0015.93,0001.54,0000.55
2022-11-05 12:49:00,,0811.5,5.01,0.00,22.5,21.1,00.0,31.3,24.3,14.6,0000.0,0017.80,0001.52,0000.56
2022-11-05 12:50:00,,0811.5,4.99,0.00,22.5,20.9,00.0,31.3,24.2,14.8,0000.0,0017.95,0001.51,0000.56
2022-11-05 12:51:00,,0811.4,5.00,0.00,22.4,20.8,00.0,31.3,24.2,14.6,0000.0,0032.94,0001.86,0000.58
2022-11-05 12:52:00,,0811.4,5.01,0.00,22.4,20.7,00.0,31.3,24.1,14.7,0000.0,0095.90,0003.35,0000.69
2022-11-05 12:53:00,,0811.1,5.00,0.00,22.4,21.2,00.0,31.3,24.3,14.7,0000.0,0102.85,0003.50,0000.71
2022-11-05 12:54:00,,0811.4,5.01,0.00,22.5,22.2,00.0,31.2,24.5,14.7,0000.0,0104.06,0003.54,0000.72
2022-11-05 12:55:00,,0811.2,4.97,0.00,22.6,22.6,00.0,31.3,24.7,14.6,0000.0,0103.19,0003.53,0000.70
2022-11-05 12:56:00,,0811.5,5.00,0.00,22.7,22.3,00.0,31.3,24.7,14.7,0000.0,0103.14,0003.58,0000.70
2022-11-05 12:57:00,,0811.4,5.01,0.00,22.6,21.9,00.0,31.4,24.6,14.5,0000.0,0109.76,0003.66,0000.71
2022-11-05 12:58:00,,0811.5,4.99,0.00,22.6,21.6,00.0,31.4,24.5,14.6,0000.0,0119.42,0003.77,0000.71
2022-11-05 12:59:00,,0811.5,4.99,0.00,22.6,21.4,00.0,31.4,24.4,14.6,0000.0,0126.37,0003.81,0000.70
